Trenton, NJ

11:52 AM EST on February 24, 2018 (GMT -0500)
Trenton Mercer

Weather History for KTTN - November, 2012

Change the Weather History Date:

Saturday, November 17, 2012

  Actual Average Record
Temperature  
Mean Temperature 42 °F 45 °F  
Max Temperature 53 °F 54 °F 72 °F (1896)
Min Temperature 30 °F 37 °F 19 °F (1933)
Degree Days  
Heating Degree Days 23 20  
Month to date heating degree days 369 293  
Since 1 July heating degree days 676 690  
Cooling Degree Days 0 0  
Month to date cooling degree days 0 0  
Year to date cooling degree days 1234 965  
Moisture  
Dew Point 28 °F    
Average Humidity 62    
Maximum Humidity 82    
Minimum Humidity 41    
Precipitation  
Precipitation 0.00 in 0.12 in 1.30 in (2002)
Month to date precipitation 0.58 1.77  
Year to date precipitation 32.63 41.20  
Sea Level Pressure  
Sea Level Pressure 30.55 in    
Wind  
Wind Speed 5 mph (NE)    
Max Wind Speed 14 mph    
Max Gust Speed 17 mph    
Visibility 10 miles    
Events      
T = Trace of Precipitation, MM = Missing Value Source: NWS Daily Summary

Daily Weather History Graph

Daily Weather History Graph

Search for Another Location

Airport or City:

Trip Planner

Search our weather history database for the weather conditions in past years. The results will help you decide how hot, cold, wet, or windy it might be!

Date:

Astronomy

Nov. 17, 2012 Rise Set
Actual Time 6:47 AM EST 4:40 PM EST
Civil Twilight 6:18 AM EST 5:09 PM EST
Nautical Twilight 5:45 AM EST 5:42 PM EST
Astronomical Twilight 5:13 AM EST 6:14 PM EST
Moon 10:30 AM EST (11/17) 8:47 PM EST (11/17)
Length of Visible Light 10h 51m
Length of Day
9h 52m
Waxing Crescent, 20% of the Moon is Illuminated
Nov 17
Waxing Crescent
Nov 20
First Quarter
Nov 28
Full
Dec 6
Last Quarter
Dec 13
New

Hourly Weather History & Observations

Time (EST) Temp. Windchill Dew Point Humidity Pressure Visibility Wind Dir Wind Speed Gust Speed Precip Events Conditions
12:53 AM 34.0 °F 31.0 °F 24.1 °F 67% 30.44 in 10.0 mi NNE 3.5 mph - N/A   Clear
1:53 AM 35.1 °F - 24.1 °F 64% 30.45 in 10.0 mi Calm Calm - N/A   Clear
2:53 AM 30.9 °F - 24.1 °F 76% 30.45 in 10.0 mi Calm Calm - N/A   Clear
3:53 AM 35.1 °F 29.3 °F 25.0 °F 67% 30.46 in 10.0 mi North 6.9 mph - N/A   Clear
4:53 AM 34.0 °F 27.2 °F 25.0 °F 70% 30.48 in 10.0 mi North 8.1 mph - N/A   Clear
5:53 AM 33.1 °F 26.1 °F 24.1 °F 70% 30.50 in 10.0 mi North 8.1 mph - N/A   Clear
6:53 AM 34.0 °F 28.8 °F 24.1 °F 67% 30.53 in 10.0 mi North 5.8 mph - N/A   Clear
7:53 AM 37.0 °F 32.4 °F 26.1 °F 65% 30.56 in 10.0 mi NNE 5.8 mph - N/A   Clear
8:53 AM 43.0 °F 37.2 °F 28.0 °F 56% 30.57 in 10.0 mi ENE 10.4 mph 16.1 mph N/A   Clear
9:53 AM 46.0 °F 41.4 °F 28.9 °F 51% 30.58 in 10.0 mi ENE 9.2 mph - N/A   Clear
10:53 AM 48.9 °F - 30.0 °F 48% 30.58 in 10.0 mi ENE 10.4 mph - N/A   Clear
11:53 AM 51.1 °F - 30.9 °F 46% 30.57 in 10.0 mi ENE 10.4 mph - N/A   Clear
12:53 PM 53.1 °F - 30.9 °F 43% 30.56 in 10.0 mi East 8.1 mph - N/A   Clear
1:53 PM 52.0 °F - 30.9 °F 45% 30.55 in 10.0 mi ESE 6.9 mph - N/A   Clear
2:53 PM 53.1 °F - 30.9 °F 43% 30.55 in 10.0 mi ESE 6.9 mph - N/A   Clear
3:53 PM 51.1 °F - 30.9 °F 46% 30.56 in 10.0 mi ESE 4.6 mph - N/A   Clear
4:53 PM 48.0 °F - 30.0 °F 50% 30.57 in 10.0 mi SE 3.5 mph - N/A   Clear
5:53 PM 44.1 °F - 30.0 °F 58% 30.58 in 10.0 mi Calm Calm - N/A   Clear
6:53 PM 43.0 °F - 30.0 °F 60% 30.59 in 10.0 mi Calm Calm - N/A   Clear
7:53 PM 39.0 °F 36.8 °F 30.0 °F 70% 30.58 in 10.0 mi NNE 3.5 mph - N/A   Clear
8:53 PM 37.9 °F 35.5 °F 30.0 °F 73% 30.59 in 10.0 mi NNE 3.5 mph - N/A   Clear
9:53 PM 35.1 °F - 28.9 °F 78% 30.60 in 10.0 mi Calm Calm - N/A   Clear
10:53 PM 34.0 °F 28.8 °F 28.9 °F 82% 30.61 in 10.0 mi North 5.8 mph - N/A   Clear
11:53 PM 37.0 °F 32.4 °F 30.0 °F 76% 30.61 in 9.0 mi NNE 5.8 mph - N/A   Clear